sat.trackr.live / text

‹ back to catalog

GESAT GEN1

NORAD 62612 · 2025-009D

PAYLOAD ACTIVE UNKNOWN

§ Identity

Operator
Country
FR
Launch date
2025-01-14
Launch site
AFWTR
Launch vehicle
Mass (kg)
RCS (m²)

External: N2YO · Heavens-Above · Gunter

§ Orbital elements

Epoch: 2026-05-25T04:07:55.951968Z

Period
94.23 min
Inclination
97.4019°
Eccentricity
0.0001905
Mean motion
15.28161936 rev/d
Perigee alt
480.0 km
Apogee alt
482.6 km
Semi-major
6,859.4 km
B*
3.1972e-4
RAAN
227.3572°
Arg perigee
81.4631°
Mean anomaly
278.6824°
Rev number
7,540

§ Raw data

GESAT GEN11 62612U 25009D   26145.17217537  .00008704  00000+0  31972-3 0  99972 62612  97.4019 227.3572 0001905  81.4631 278.6824 15.28161936 75400

JSON: /api/v1/satellites/62612 · /tle

For live sub-satellite position, see the globe view (requires WebGL).

§ Visibility from observer

Set your observer location to see the next 7 days of passes ≥ 10°. The values pass through the URL so the page stays shareable.

No JS? Fill the form by hand. The geolocation button needs JavaScript.

§ Radio — SatNOGS DB

ModeDescriptionDownlinkUplink
FM Mode S - Transmitter 1 2.288 GHz
FM Mode S - Transmitter 2 2.290 GHz
FM Mode X - Transmitter 8.367 GHz

3 transmitters · refreshed weekly from db.satnogs.org